Theta_e
330 331 331 331 330 327 324 323 322 320 318 317 319 320 321 321 319 317 316 315 315 315 314 313 313 313 313 313 314 314 314 313 312 312 312 313 313 313 314 314 315 315 316 317 317 317 317 317 317 317 317 316 316 317 316 316 316 315 316 316 316 316 316 316 315 314 313 311 310 309 309 308 308 308 307 308 308 308 306 306 306 306 306 306 306
330 330 329 329 329 327 324 323 322 319 317 317 317 318 319 320 319 318 317 315 315 315 314 313 313 312 312 312 313 314 314 314 313 313 313 314 313 313 314 315 315 315 315 316 316 316 315 316 316 316 316 315 315 316 315 315 315 315 315 316 316 316 316 315 315 315 313 312 310 309 309 310 309 308 308 308 308 308 308 307 306 307 307 307 307
330 330 329 329 328 327 324 323 322 320 320 320 318 316 316 315 316 318 317 315 315 315 315 314 313 313 312 313 313 314 314 314 314 314 314 315 314 314 314 314 314 315 315 315 316 315 315 314 315 315 315 315 315 315 314 314 315 315 315 316 315 315 315 315 315 315 313 312 311 310 309 311 311 309 308 308 308 309 309 308 308 308 308 308 308
330 329 329 329 328 327 325 323 322 323 324 323 320 317 312 310 313 316 317 316 315 315 315 315 315 315 314 313 313 314 316 316 315 314 314 315 316 315 314 314 314 314 314 314 314 314 314 314 313 314 314 314 315 314 314 314 315 315 315 315 315 315 315 314 315 315 313 312 312 311 311 311 311 310 309 309 309 309 309 309 309 309 309 310 310
329 329 329 328 328 328 326 324 322 323 324 323 322 320 316 314 316 318 318 317 316 315 315 315 316 316 316 315 314 315 317 317 316 315 315 315 316 316 315 315 314 314 313 313 314 314 315 315 314 314 314 315 315 315 314 314 315 315 315 315 315 315 315 315 315 315 314 314 313 312 312 313 312 311 311 311 310 310 310 310 310 311 311 311 311
328 328 328 329 328 328 327 326 323 323 323 324 323 322 321 320 320 319 318 317 317 316 315 315 316 316 317 317 316 316 316 317 317 317 318 317 317 317 317 316 316 316 316 315 315 315 316 316 316 316 316 317 317 317 316 315 315 316 316 316 315 314 315 315 316 315 315 315 315 314 314 314 313 312 312 311 311 310 311 311 311 311 311 311 310
328 327 328 329 329 328 328 327 326 325 325 324 323 322 322 322 321 320 318 317 316 316 316 315 315 316 316 316 316 316 316 316 317 318 318 318 318 318 318 318 318 318 318 318 317 317 318 318 318 318 318 318 318 318 317 317 317 316 316 316 315 314 315 315 316 316 316 315 315 315 315 314 314 313 313 312 312 312 312 312 311 311 311 310 310
327 327 327 327 328 328 328 328 327 326 325 324 324 324 323 322 321 320 320 318 317 317 317 316 315 315 315 314 315 316 315 315 316 316 317 317 318 319 319 319 319 319 320 320 319 319 320 319 319 320 319 318 318 318 318 317 317 317 317 316 316 316 315 315 315 315 315 315 315 315 315 314 314 313 313 313 312 312 312 311 311 311 310 310 309
326 326 326 326 326 326 326 327 326 325 324 324 324 324 323 322 321 320 320 319 319 319 318 317 317 316 315 314 314 314 315 315 316 316 316 318 319 321 321 320 320 320 320 320 320 321 321 320 319 319 319 319 318 318 317 317 317 318 318 316 316 316 315 315 314 315 315 315 315 315 315 314 313 313 313 313 312 312 311 311 310 310 309 309 309
325 325 326 326 325 325 325 325 325 324 324 325 324 324 323 323 322 321 320 320 320 320 320 319 318 317 317 316 315 314 315 316 316 316 317 318 320 322 322 322 321 321 320 320 320 321 320 319 319 318 318 318 318 317 317 317 316 316 317 316 316 316 316 315 315 314 315 315 315 315 314 313 313 313 313 312 312 311 310 310 310 309 308 309 308
323 324 325 324 324 324 324 324 324 324 324 323 323 323 323 323 324 323 322 322 321 321 320 320 320 319 319 317 316 316 316 316 317 318 318 319 322 323 323 322 323 322 322 321 321 321 320 319 318 317 316 317 318 318 317 318 317 316 316 315 315 316 316 316 315 315 315 315 315 314 314 313 313 313 312 311 311 310 310 308 308 307 308 308 308
320 320 321 322 322 322 322 322 323 323 323 323 323 322 322 323 324 324 324 324 321 320 320 321 320 320 320 319 318 318 317 317 317 318 319 320 323 323 323 323 323 323 322 321 320 320 319 318 318 317 316 317 317 318 319 318 317 316 316 316 315 315 315 315 315 315 315 314 314 313 313 312 312 312 311 311 310 309 308 307 306 307 307 307 307
315 315 316 317 318 319 319 321 321 321 321 322 322 323 323 323 324 324 324 324 323 322 321 322 322 321 320 320 320 320 319 319 319 320 319 320 322 323 323 322 322 321 320 319 318 317 316 317 317 317 317 315 315 318 320 318 314 314 316 317 316 316 315 314 313 313 311 311 311 311 311 312 312 311 310 309 308 307 306 306 306 306 307 306 306
313 313 313 313 313 314 316 317 318 319 320 320 321 322 323 323 324 324 323 324 324 323 322 322 323 322 321 322 322 321 322 322 322 321 320 320 321 322 321 321 320 319 317 317 316 315 315 315 316 315 315 314 314 317 319 317 315 316 317 317 316 316 316 313 311 310 309 308 308 308 310 311 310 310 308 306 305 306 306 306 305 305 304 303 303
311 311 311 311 311 311 312 313 314 315 317 318 319 320 321 321 323 323 323 323 323 323 323 323 322 322 322 322 322 321 321 320 321 322 321 320 321 321 320 319 319 318 318 317 316 315 315 316 314 312 312 315 317 318 317 318 318 317 316 315 314 314 313 312 310 308 308 307 306 306 309 310 309 307 305 304 303 304 304 303 302 301 301 301 301
309 308 309 308 309 309 310 311 312 312 314 314 316 317 318 319 320 321 322 323 323 323 323 323 322 322 322 322 321 321 321 320 320 320 321 320 320 319 319 318 318 318 318 318 317 317 316 315 314 312 312 316 318 317 316 318 317 315 313 312 311 310 310 309 308 307 307 308 307 307 308 308 306 304 302 302 302 302 301 300 300 300 300 300 300
307 306 306 306 307 307 308 309 310 310 311 312 313 314 315 316 317 319 320 322 322 322 323 323 322 322 322 322 321 321 320 320 320 319 319 320 319 317 315 316 316 316 316 317 318 317 316 315 313 313 315 318 318 314 314 317 316 314 312 311 310 309 308 307 307 307 307 307 306 305 305 304 303 302 302 302 302 301 300 300 299 299 299 299 300
305 305 305 305 305 306 306 307 308 309 310 311 311 311 312 313 314 315 316 318 319 321 322 323 322 322 322 322 321 321 320 320 320 319 317 317 318 316 314 314 315 315 314 315 316 317 316 315 315 315 316 316 313 310 311 315 315 313 312 311 310 309 307 306 306 305 304 303 303 302 302 302 303 302 302 302 301 301 300 300 299 299 299 299 300
304 304 304 304 304 303 304 305 306 307 308 309 310 310 310 311 311 312 314 315 316 318 321 321 322 321 321 321 321 320 320 319 319 319 318 317 318 317 315 315 315 314 314 315 316 316 315 315 316 316 314 311 309 309 311 313 314 313 312 311 310 309 307 306 305 304 303 304 304 304 304 304 304 303 302 301 301 301 301 300 300 299 299 299 300
303 303 303 303 303 302 303 303 304 305 306 307 308 308 309 309 309 310 311 313 314 316 318 319 320 321 320 321 320 320 319 319 319 319 319 319 319 316 314 314 314 314 315 315 314 314 314 313 313 313 310 308 307 308 310 312 313 312 312 311 310 309 308 307 306 306 306 305 305 304 304 304 303 303 302 302 301 302 301 300 300 300 300 299 299
302 302 302 302 302 303 303 303 303 304 304 304 304 305 306 307 308 309 310 311 312 313 315 317 318 319 318 319 319 318 318 319 320 320 319 320 318 316 314 314 314 314 315 313 312 311 311 310 310 308 307 306 306 307 309 311 312 311 310 310 309 308 308 307 307 306 305 304 304 304 304 303 303 303 303 303 302 301 301 300 300 300 300 299 298
301 301 301 302 302 302 302 302 303 303 303 303 303 304 304 306 307 308 308 309 310 311 312 314 315 317 317 317 318 318 318 318 320 319 319 319 318 315 314 312 312 314 314 312 310 308 308 308 308 306 305 305 305 306 308 310 310 310 309 308 308 307 306 305 305 304 303 303 303 303 302 302 301 301 301 301 300 300 300 299 298 298 298 297 297
301 301 301 301 301 302 302 302 302 302 303 303 303 303 304 304 305 306 306 308 309 310 311 312 313 316 316 315 316 318 318 318 318 319 319 318 316 314 312 311 311 312 312 310 308 306 305 306 306 305 305 305 305 305 306 307 308 308 306 305 305 305 304 303 302 302 302 302 302 301 301 301 300 300 300 299 299 299 298 298 297 297 297 297 297
301 301 301 301 301 301 301 301 302 302 302 302 302 302 303 303 303 304 305 306 307 308 309 310 312 314 317 316 317 318 318 317 317 318 318 317 315 313 312 311 311 311 309 307 306 305 304 304 304 304 304 304 304 304 304 304 305 304 304 304 303 302 302 302 302 302 301 301 301 301 300 300 299 299 299 299 299 298 298 297 297 297 297 296 296
300 300 300 300 300 300 301 301 301 301 301 301 302 302 302 302 303 303 304 304 305 306 307 309 310 312 315 318 317 317 317 317 317 317 316 316 315 313 311 311 310 309 308 307 307 305 304 304 303 304 304 304 304 303 303 303 303 303 302 301 300 300 301 301 301 301 301 300 300 300 299 299 299 298 298 298 298 297 297 297 296 296 296 295 295
300 300 300 300 300 300 300 300 300 300 300 300 300 300 301 301 302 302 303 303 303 304 305 307 309 309 313 316 316 316 316 315 315 316 315 314 314 313 311 311 310 308 306 307 307 306 304 304 303 304 303 302 302 302 302 301 301 299 299 298 299 300 301 301 300 300 299 299 299 298 298 298 298 297 297 297 297 297 296 296 295 295 295 294 294
299 299 299 299 299 299 300 300 299 299 299 299 299 300 300 301 301 301 302 302 303 303 303 304 306 307 309 313 314 314 314 313 313 313 312 312 311 311 310 310 309 307 307 308 307 305 303 303 304 303 302 301 300 300 299 298 297 297 297 298 300 300 299 299 298 298 298 298 298 298 297 297 297 297 297 297 296 296 295 295 294 294 294 294 293
299 299 299 299 299 299 299 299 299 299 299 299 299 299 300 300 300 301 301 302 303 303 303 303 305 308 310 312 313 314 313 312 311 310 310 310 310 309 309 309 308 307 306 307 307 306 304 303 303 302 300 300 299 297 295 296 297 298 299 299 299 299 298 297 297 297 297 297 297 296 296 296 296 296 296 296 295 295 294 294 293 293 293 293 293
298 299 298 298 298 298 299 299 299 299 299 299 299 299 299 299 299 299 299 299 300 300 300 301 303 307 311 312 313 313 313 311 311 310 309 309 309 309 308 308 307 306 306 307 307 305 302 302 301 300 299 299 297 295 295 297 299 299 299 299 299 298 298 297 297 297 296 296 295 295 295 295 295 295 295 295 294 294 293 293 293 292 292 293 292
298 298 298 298 298 298 298 298 298 298 298 298 299 299 298 298 298 298 298 298 298 299 299 300 300 304 307 308 309 310 311 311 311 310 309 308 308 308 308 307 305 305 305 306 305 302 300 300 300 299 298 298 297 296 298 299 299 299 299 298 298 298 297 296 296 295 294 294 294 295 295 295 295 295 294 294 293 293 293 293 292 292 292 292 292
298 298 298 298 298 298 297 297 298 297 298 298 298 298 298 298 298 298 297 298 298 298 299 300 300 303 305 306 306 307 308 309 310 309 309 308 306 305 306 306 306 305 305 304 302 300 299 299 298 297 297 297 297 298 299 299 299 298 298 297 297 297 296 295 295 294 294 294 295 295 295 294 294 294 294 293 293 292 292 292 292 292 292 292 292
297 297 297 297 297 297 297 297 297 297 297 297 297 297 297 297 298 298 297 297 297 298 299 300 300 302 303 304 305 304 305 307 308 308 307 306 306 305 304 305 305 305 304 302 301 299 298 298 297 296 297 297 298 299 300 299 298 298 297 297 296 296 295 295 294 294 294 294 294 294 294 294 294 294 293 293 293 293 292 292 292 292 292 291 291
297 297 297 297 297 297 297 297 296 296 296 296 297 297 297 297 297 297 297 297 297 297 299 300 300 301 302 303 303 303 303 304 305 305 304 304 304 304 304 304 304 303 302 301 300 299 298 298 297 297 298 299 299 299 299 298 298 297 297 296 296 295 294 294 294 294 294 294 294 294 294 294 293 293 293 293 293 292 292 292 291 291 291 291 291
297 297 297 297 296 296 296 296 296 296 296 296 296 296 296 296 296 296 296 297 297 297 298 299 300 300 301 301 302 302 301 301 301 303 304 304 304 303 302 302 301 301 300 300 299 299 298 299 299 299 299 299 299 298 298 298 297 297 297 296 296 295 295 294 294 294 294 294 294 294 294 293 293 293 293 293 292 292 292 291 291 291 291 291 291
297 297 297 297 297 296 296 296 296 296 296 295 295 295 295 295 295 295 296 296 296 296 297 298 300 301 300 300 300 300 300 300 300 301 303 304 304 304 302 299 297 299 300 300 299 299 299 299 299 299 299 298 298 298 298 298 297 297 296 296 296 295 293 293 294 294 293 293 294 294 293 293 293 293 293 292 292 292 292 291 291 291 290 290 290
297 297 297 297 297 296 296 296 296 296 296 295 295 295 295 294 294 295 295 295 296 296 297 298 300 300 299 299 299 299 300 300 300 301 302 303 303 303 300 298 297 298 299 299 299 299 299 299 299 299 299 298 297 298 298 297 297 296 296 296 295 293 293 293 293 293 293 293 294 294 293 293 293 293 293 292 292 292 291 291 290 290 290 290 290
297 297 297 297 296 295 295 295 295 295 295 295 295 294 294 294 294 294 294 295 295 296 296 298 300 299 298 298 300 300 300 300 300 300 301 301 301 301 299 298 297 297 297 298 299 299 299 299 299 299 299 297 297 297 297 297 296 296 296 295 294 293 293 292 293 293 293 293 294 293 293 293 293 293 292 292 292 291 291 290 290 290 290 290 290
297 297 297 296 295 295 295 295 295 294 294 295 295 294 294 294 293 293 294 294 295 295 296 297 299 299 297 297 298 299 299 299 299 299 299 299 299 299 299 298 298 297 297 298 299 299 299 299 300 299 298 297 297 297 297 297 296 296 295 294 293 292 292 292 292 293 294 293 293 293 293 292 292 292 292 291 291 290 290 290 290 290 290 290 290
297 297 296 296 295 295 295 294 294 294 294 294 294 294 294 293 293 293 294 294 295 295 296 298 299 299 297 297 297 298 298 297 297 297 297 297 297 298 298 298 297 297 297 298 299 299 299 300 300 299 298 297 298 297 297 296 295 295 294 293 293 292 292 292 293 293 293 292 293 293 292 292 292 291 291 291 290 290 290 290 290 290 290 290 290
297 296 296 295 295 295 295 294 294 294 294 294 294 294 294 294 294 294 294 294 295 296 297 298 299 298 297 296 296 297 297 296 296 296 296 296 296 297 297 297 296 297 298 298 298 299 299 299 299 298 298 298 298 297 296 295 295 294 294 293 292 292 292 293 293 293 292 292 292 292 292 291 291 291 291 291 290 290 290 290 290 290 290 290 290
297 296 295 295 295 295 295 295 294 294 294 294 294 294 294 294 294 294 294 295 295 296 298 298 296 296 296 296 296 297 297 296 296 296 296 296 296 296 296 297 297 298 298 298 298 299 299 299 298 298 297 297 296 296 295 295 294 293 293 292 292 292 293 293 293 293 292 292 292 291 291 291 291 291 291 291 290 290 290 290 290 290 290 290 290
296 296 295 295 295 295 295 295 294 294 294 294 294 294 294 294 294 295 296 295 295 296 297 296 294 295 296 296 297 297 297 296 296 296 296 296 296 296 296 297 298 297 298 298 298 299 298 298 298 298 297 296 295 295 294 294 293 293 292 291 291 292 292 292 292 292 291 291 291 290 290 290 291 291 291 290 290 290 290 290 290 290 290 290 291
296 296 295 295 295 295 295 295 294 294 294 294 293 294 294 294 295 296 296 296 296 296 295 294 293 294 295 296 296 296 295 295 295 295 295 295 295 295 296 297 297 297 298 298 298 298 298 297 297 296 295 295 294 294 293 292 292 291 291 290 290 291 291 291 291 290 290 290 290 290 290 290 290 290 290 290 290 290 290 290 290 290 291 291 290
296 295 295 294 295 295 295 295 295 295 295 294 294 295 295 295 296 296 296 295 295 295 294 293 293 294 295 296 296 296 295 294 295 295 295 295 294 295 295 296 296 296 297 297 297 297 297 296 295 294 294 293 292 292 291 291 290 290 290 290 289 289 289 289 288 288 289 289 289 290 290 290 290 290 290 290 290 290 290 290 290 291 290 290 290
295 294 294 294 295 295 295 295 296 296 295 295 296 296 296 296 296 296 296 295 295 294 294 294 294 295 295 295 295 295 295 295 295 295 295 294 294 295 295 295 295 295 295 295 295 295 295 294 294 294 293 291 291 290 290 290 290 289 289 289 288 288 287 287 286 287 288 289 289 289 289 289 289 290 290 290 290 290 290 290 291 290 290 290 290
295 294 294 294 295 295 295 295 296 296 296 296 296 296 296 296 296 296 296 296 295 295 295 295 294 294 294 294 294 294 294 294 294 294 294 294 294 294 294 294 294 294 294 294 294 294 294 293 293 292 292 290 290 290 290 289 289 289 289 288 288 287 286 286 286 288 289 290 289 289 288 289 289 289 290 290 290 290 291 290 290 290 290 290 290
295 294 294 294 294 295 295 295 295 295 295 295 295 295 295 296 296 296 295 294 294 294 294 294 294 294 293 293 293 293 293 293 293 293 293 293 293 293 293 294 294 294 293 293 293 293 293 292 292 291 290 290 290 290 290 289 289 289 289 288 287 287 287 286 286 288 289 289 289 289 288 288 289 289 290 290 290 290 290 290 290 290 290 290 291
296 295 294 294 294 294 294 294 294 294 294 294 294 294 294 295 296 296 295 294 294 294 294 294 293 293 293 292 292 292 293 292 292 292 292 292 292 293 292 292 293 293 292 292 292 292 292 291 291 290 290 290 289 289 289 289 289 289 288 287 287 287 287 286 286 288 289 289 289 289 289 289 289 289 289 290 290 290 290 290 290 290 290 291 291
296 295 294 294 293 293 293 294 293 293 293 293 293 293 293 293 294 295 295 294 294 294 293 293 293 292 292 292 292 292 292 292 292 292 292 292 292 292 292 292 292 292 291 291 291 291 291 290 290 290 289 289 289 289 289 288 288 288 288 287 287 287 287 286 286 287 289 289 289 289 289 289 289 289 290 290 290 290 290 290 291 291 291 291 291
296 295 295 294 293 292 292 292 293 293 293 292 292 292 292 292 293 294 294 294 294 293 293 292 292 292 291 291 292 292 292 291 291 291 291 291 291 291 291 291 291 291 291 290 291 290 290 290 289 289 288 288 288 288 288 288 287 287 287 287 287 287 287 287 286 287 288 289 289 289 289 289 289 289 290 290 290 290 290 291 291 291 291 291 291
296 296 295 294 293 292 291 291 292 292 292 292 292 291 291 292 292 293 293 293 293 292 292 292 292 292 292 291 292 291 291 291 291 291 291 290 290 290 290 290 290 290 290 290 290 290 290 289 289 288 288 288 288 287 287 287 287 287 287 287 288 288 287 287 286 286 287 288 289 289 289 289 289 290 290 290 290 290 290 291 291 291 291 291 290
Wind_Speed
12 12 12 14 14 15 15 15 15 15 15 15 13 12 12 11 10 9 9 9 9 9 8 8 8 8 9 9 10 10 10 10 11 11 12 12 12 13 13 13 13 13 13 12 12 12 12 11 10 10 10 10 8 7 8 8 7 7 7 7 8 7 8 14 14 8 6 5 4 4 2 2 2 3 4 3 5 5 1 3 8 8 5 7 10
10 11 11 13 13 14 14 15 15 15 15 14 13 12 12 12 12 10 8 9 9 8 8 9 8 8 9 9 9 10 10 10 10 11 12 13 12 11 12 13 13 13 12 11 11 11 11 10 8 8 8 6 4 5 7 4 2 6 8 8 8 6 4 7 13 12 8 6 3 2 2 3 3 2 2 2 5 5 1 3 6 6 4 7 9
10 11 12 13 13 13 13 14 14 15 15 13 12 13 13 14 14 12 9 10 10 9 9 9 8 9 9 9 9 10 10 9 9 11 11 11 11 10 11 13 13 11 11 10 10 9 9 8 7 5 5 4 3 4 4 2 4 5 9 9 9 6 3 3 7 11 11 8 4 5 6 2 3 3 2 4 6 4 2 1 3 2 3 5 8
9 10 12 13 13 12 13 13 14 15 14 13 13 12 12 14 13 11 10 10 9 9 9 9 8 9 9 9 10 9 9 9 9 10 11 10 9 9 11 12 11 10 10 10 9 8 8 7 6 4 3 2 3 3 1 2 4 4 5 4 3 2 1 1 4 7 9 9 6 6 6 3 3 4 2 5 4 2 2 4 3 1 2 6 10
7 9 11 12 13 13 13 12 13 14 13 13 13 12 12 12 11 10 10 10 10 10 10 9 8 9 9 9 9 9 9 9 9 10 10 10 9 10 10 10 10 9 8 9 9 8 7 6 5 5 3 2 2 2 1 2 3 3 2 2 3 5 3 2 1 2 0 3 5 5 2 4 4 1 3 2 3 6 5 4 3 7 10 11 13
7 8 10 11 12 13 12 11 12 13 12 11 11 11 11 11 10 11 11 10 11 10 10 11 10 10 9 9 9 9 9 9 9 9 10 9 10 10 10 9 9 8 7 7 8 8 6 6 5 5 4 3 2 0 2 1 3 5 5 6 3 7 5 1 2 4 4 3 2 3 1 6 8 7 6 6 7 7 5 6 7 11 14 14 14
7 8 9 10 10 10 10 9 9 9 9 8 7 9 11 12 11 12 12 12 12 11 11 11 11 11 11 10 10 10 11 11 10 10 10 9 10 10 10 10 9 8 7 6 7 7 6 6 5 4 5 4 4 2 1 1 3 4 5 7 5 2 2 1 3 4 3 2 3 2 2 4 6 6 7 9 9 6 7 10 11 12 13 13 14
7 7 9 8 8 9 8 7 6 8 9 8 6 6 9 10 11 12 12 12 12 12 12 12 11 12 12 12 13 12 13 14 13 13 12 12 11 11 11 11 10 9 8 7 7 6 6 7 6 4 5 5 4 4 3 3 4 3 4 5 4 3 2 2 4 7 5 3 3 5 7 7 7 8 7 5 5 5 8 9 9 10 11 11 14
7 6 8 8 7 7 8 7 5 6 7 6 5 6 8 9 11 12 12 11 11 11 11 11 12 12 12 13 15 15 15 16 16 15 15 15 14 13 13 12 11 11 11 9 8 6 5 7 7 5 5 5 4 6 6 6 6 5 5 6 5 5 4 4 6 7 8 8 7 9 11 11 10 7 5 3 2 4 6 6 5 7 9 12 15
6 6 7 7 5 5 6 7 6 6 6 5 4 6 7 6 7 9 10 10 10 11 11 11 12 12 13 14 15 16 17 17 17 18 17 17 16 15 15 14 12 13 14 11 9 8 7 8 7 6 7 7 5 6 7 8 8 9 8 8 8 7 7 7 8 8 9 11 10 9 8 7 6 4 2 1 1 1 1 2 4 7 11 13 14
6 5 5 5 5 4 4 4 4 5 6 5 4 5 6 6 6 8 10 10 9 10 11 12 13 13 14 14 15 16 18 19 19 19 19 18 18 16 16 16 14 15 17 15 11 10 8 7 8 8 9 10 9 9 9 9 11 13 14 14 13 11 10 9 9 9 10 10 10 10 9 7 8 5 1 3 3 3 3 3 6 9 10 11 11
8 7 5 6 7 6 6 6 8 8 7 7 7 7 8 9 9 9 10 10 10 10 10 12 15 15 15 16 17 17 19 21 21 20 20 20 20 19 19 20 19 18 18 18 15 13 10 8 9 9 8 9 10 10 9 8 10 13 15 17 18 17 15 13 10 8 7 5 4 7 6 5 6 4 3 4 4 4 5 6 7 8 9 10 11
11 11 10 9 8 6 4 5 8 10 9 9 10 10 10 11 11 10 10 11 11 11 11 12 14 16 17 18 20 20 18 20 23 23 22 22 23 24 23 23 22 20 20 19 16 15 13 12 12 9 7 8 9 9 9 10 11 11 11 14 16 17 17 16 14 11 9 6 1 4 6 5 5 4 3 4 5 6 7 8 8 8 10 12 14
11 12 12 12 11 11 10 9 6 4 4 4 6 7 7 8 10 10 11 12 13 14 15 13 12 14 16 18 20 20 16 15 19 23 23 24 26 26 24 21 21 20 19 18 16 15 15 15 14 11 7 8 9 10 12 13 13 11 9 10 12 14 15 15 15 14 12 11 7 3 3 1 3 3 2 5 7 7 6 6 8 10 13 15 17
12 13 14 14 15 14 13 12 10 8 5 3 2 4 5 7 8 7 8 10 13 14 16 17 16 18 20 20 22 24 20 16 19 23 24 25 26 26 23 19 18 18 17 16 16 16 16 17 17 13 11 12 13 12 11 10 10 10 8 7 9 10 11 12 12 12 10 10 9 8 6 5 3 2 5 8 8 7 6 8 10 12 15 17 18
14 15 16 16 15 15 14 13 12 11 10 8 6 6 5 5 6 6 7 10 12 13 15 17 19 22 24 24 25 25 22 17 16 20 24 25 25 27 26 22 19 17 15 15 16 17 18 19 17 14 15 19 19 15 12 9 9 7 7 9 8 6 7 8 8 8 8 7 7 8 7 6 6 8 8 9 9 10 11 12 11 11 13 14 15
16 17 16 15 15 15 14 13 13 12 12 11 12 12 11 9 8 7 8 9 11 13 15 17 19 21 23 25 26 25 20 16 15 17 23 26 26 29 30 26 22 19 16 15 16 18 20 21 19 17 19 20 18 16 15 13 9 8 10 10 7 5 5 7 8 8 9 8 7 7 7 8 9 9 9 10 11 11 11 10 9 9 10 11 12
14 14 13 13 14 13 13 13 13 12 12 12 12 13 13 12 12 12 11 11 13 14 15 17 19 20 21 23 24 22 20 19 17 17 21 24 26 30 31 29 26 24 22 20 19 20 22 22 22 23 23 19 15 16 18 16 11 11 13 11 7 6 6 7 8 9 9 8 7 7 7 8 8 9 10 11 11 10 8 8 7 6 6 8 10
12 12 12 13 13 13 13 13 13 12 11 12 12 12 13 14 14 14 14 14 14 15 15 16 18 20 21 23 24 22 21 21 20 20 22 23 26 30 30 28 24 23 24 24 22 22 23 22 23 24 21 17 16 17 18 17 13 13 14 12 11 11 7 5 6 5 3 2 4 5 7 8 9 10 11 10 9 8 8 7 6 5 6 9 12
11 11 12 13 13 13 13 13 13 12 12 13 13 14 14 15 15 16 17 17 16 16 16 16 15 16 18 20 21 20 21 22 23 23 23 24 28 27 22 19 19 21 24 24 23 24 23 20 21 20 18 18 18 18 18 16 14 15 14 11 11 12 9 8 8 6 3 1 3 6 8 9 9 9 9 9 9 11 11 10 7 6 8 11 12
11 12 12 12 12 12 12 13 14 14 15 16 16 17 17 17 17 17 17 17 18 18 18 17 16 16 17 17 16 16 19 23 24 24 24 24 26 24 19 14 14 15 17 17 19 22 21 20 20 18 18 19 18 17 18 14 13 15 14 10 12 14 11 9 8 5 2 2 4 5 6 7 8 9 9 9 7 6 7 7 7 8 10 12 13
11 11 12 13 13 14 14 14 15 16 16 17 18 19 18 18 18 18 18 19 21 21 20 19 19 19 19 18 15 14 19 22 22 22 24 23 21 22 22 15 9 11 15 12 14 19 19 20 21 19 17 18 16 16 16 13 11 13 11 9 12 14 10 7 4 2 0 2 4 5 5 6 7 8 7 4 2 2 4 7 8 10 11 12 11
8 9 10 12 13 14 14 15 16 16 16 17 18 19 20 19 19 20 20 21 21 22 22 21 21 21 21 21 16 13 17 21 22 22 23 20 18 22 23 14 8 14 17 10 10 17 18 18 20 18 16 16 15 14 15 12 10 9 7 7 8 8 5 4 3 3 2 2 5 6 6 6 6 6 6 5 5 7 10 12 14 13 10 9 9
7 8 9 11 12 12 13 14 15 16 16 18 19 20 20 20 21 21 20 21 21 22 22 22 22 21 21 20 16 12 13 17 21 22 22 20 21 24 24 16 11 17 19 11 8 14 17 17 18 17 15 15 14 13 12 10 9 8 6 5 5 4 3 3 3 4 4 4 5 5 4 4 4 5 5 6 9 12 13 13 13 11 9 9 11
9 10 11 12 12 13 13 14 15 15 15 16 17 19 20 20 21 21 21 21 22 22 22 22 22 21 19 19 17 14 13 15 17 18 20 22 24 26 26 20 16 20 21 12 10 15 17 17 17 15 13 13 12 11 10 9 8 6 5 5 4 3 3 3 3 3 3 3 3 2 3 4 4 5 6 7 9 11 11 10 11 11 11 12 13
12 13 14 14 15 15 15 15 15 15 15 16 17 18 20 20 21 21 21 21 22 22 23 22 22 22 20 19 20 19 16 16 16 18 20 23 26 28 28 23 21 24 22 15 15 19 18 17 16 14 12 11 9 9 8 7 7 6 6 7 7 5 4 4 4 3 1 1 2 2 3 4 5 7 8 8 9 10 11 11 11 12 13 15 16
14 14 16 16 16 16 16 16 17 16 16 17 17 17 17 18 20 20 20 20 20 20 22 22 22 24 22 16 18 17 13 13 15 18 22 25 28 30 29 27 25 25 22 20 21 20 18 16 15 13 12 11 8 7 7 7 8 9 10 10 8 5 6 6 4 3 2 0 1 2 3 5 6 7 7 7 8 9 10 10 11 13 14 15 16
15 16 16 16 16 16 16 16 17 17 17 17 17 17 16 16 18 20 20 20 19 17 19 21 21 21 17 9 8 10 11 13 16 20 24 29 32 33 32 32 30 28 26 26 25 21 19 19 18 15 14 13 10 9 9 10 11 10 10 10 7 6 5 4 3 4 5 3 1 2 4 5 6 6 6 7 9 11 11 12 13 14 14 15 15
16 16 16 15 15 14 14 15 15 16 17 17 18 18 18 18 19 22 25 26 26 25 24 24 23 20 12 5 4 7 12 15 18 22 26 31 36 36 35 36 36 33 30 29 28 27 26 24 22 19 17 15 13 12 12 13 11 8 9 10 8 7 6 5 5 6 5 2 1 3 4 4 5 6 6 8 9 11 13 14 14 14 14 14 14
15 15 15 14 14 14 14 15 15 16 17 18 19 20 20 20 21 22 26 29 29 29 28 26 24 19 13 7 4 5 9 12 15 20 26 32 37 37 36 37 36 33 31 31 31 32 31 28 25 23 21 18 17 16 15 14 13 11 10 10 9 8 8 6 5 5 3 1 1 2 2 4 5 6 6 7 9 10 11 12 12 13 13 13 13
15 14 14 14 15 15 15 15 16 17 17 17 19 20 20 21 21 22 23 26 26 28 29 26 20 16 14 9 5 5 7 9 11 18 26 33 36 35 33 33 33 33 34 35 34 32 31 28 25 23 22 20 19 19 18 16 15 13 11 10 8 7 7 7 5 3 2 1 1 2 3 4 5 6 6 7 9 10 10 11 11 12 12 12 13
15 14 14 15 16 16 16 16 16 16 17 17 18 19 19 20 20 20 21 24 25 27 29 25 18 15 15 15 11 9 9 9 10 16 23 29 31 31 31 30 31 34 36 35 32 29 28 27 24 22 22 20 19 19 19 17 16 16 13 12 11 8 7 8 5 2 1 1 0 2 4 4 5 5 6 8 9 9 9 9 10 11 12 12 13
15 15 15 15 16 16 15 16 16 16 16 16 16 17 18 18 19 20 21 23 25 26 27 25 20 17 14 15 14 11 11 12 12 13 17 21 23 25 26 28 32 36 36 32 29 27 25 23 22 21 20 18 18 18 18 15 14 14 13 12 12 11 9 7 4 2 2 1 2 4 3 3 5 6 7 8 8 8 9 10 10 10 11 11 12
15 15 15 17 17 17 16 16 16 16 16 16 16 16 17 17 18 19 19 21 22 23 25 25 23 20 17 16 16 15 15 16 15 13 15 19 21 21 22 25 29 31 29 28 28 27 23 21 21 19 18 17 17 18 16 13 12 12 10 9 11 11 9 6 5 4 3 1 2 3 3 4 6 6 7 7 7 8 8 9 9 9 10 11 12
15 15 16 17 17 17 17 18 18 18 18 17 16 15 16 17 17 18 18 19 20 21 23 24 21 18 19 19 18 16 17 18 17 15 17 22 25 24 23 23 22 19 17 19 23 24 22 20 20 19 17 18 18 16 13 13 13 12 10 9 10 10 9 7 5 4 1 1 2 2 4 5 6 6 7 8 8 7 7 7 9 11 12 13 13
15 15 15 15 15 16 18 19 19 18 18 18 17 15 15 16 17 17 18 19 19 20 20 21 19 16 16 16 16 16 17 18 18 18 21 26 30 31 30 28 24 18 13 14 18 20 19 19 18 17 17 18 17 15 14 14 13 12 11 10 8 9 10 8 5 3 1 1 1 2 4 5 5 7 7 8 8 7 8 9 10 11 12 13 15
14 14 14 14 16 18 19 18 18 18 19 19 18 17 16 16 16 16 17 19 20 20 21 21 18 13 12 13 14 16 16 15 16 20 23 27 30 32 32 30 27 21 14 13 16 17 16 16 15 16 17 17 16 15 14 13 12 12 12 10 9 9 9 7 5 4 3 1 0 3 4 5 6 7 7 8 8 8 9 10 10 11 12 14 15
13 13 12 13 16 18 17 16 17 18 18 17 15 15 15 16 16 15 16 19 20 21 22 21 14 9 10 12 14 15 15 15 16 20 23 24 26 29 31 31 29 22 16 15 17 16 15 15 15 16 17 17 16 15 14 13 13 13 11 9 8 7 5 3 3 4 4 2 2 4 5 5 6 7 7 8 8 8 9 10 11 13 13 13 14
12 12 12 14 16 16 15 14 15 15 12 9 9 10 12 14 15 15 16 19 20 20 21 19 13 10 10 11 14 16 17 17 19 21 22 20 20 25 30 32 30 24 19 18 17 15 14 15 15 15 16 16 17 17 15 11 13 14 11 7 7 7 4 2 4 5 4 3 3 4 5 6 7 7 6 6 8 8 9 10 11 12 13 14 15
11 12 12 13 15 15 14 13 12 12 9 7 8 9 11 12 13 14 16 18 19 20 18 13 7 7 7 11 15 18 19 18 18 20 18 14 13 19 26 30 29 27 23 19 16 15 15 15 14 15 15 15 15 16 13 10 10 11 8 5 6 7 5 5 5 5 4 4 3 3 5 7 6 6 5 6 7 8 8 10 12 13 14 14 15
11 11 12 12 13 13 13 12 11 10 9 10 9 10 11 13 13 14 17 18 18 18 13 4 5 6 5 9 13 15 15 16 16 17 17 14 12 15 20 25 27 25 22 19 16 15 17 16 15 14 14 13 13 14 12 10 9 8 6 6 6 7 7 6 6 5 5 4 3 4 6 6 5 6 6 6 7 8 8 10 12 13 13 14 14
10 10 11 11 12 12 12 12 12 11 11 11 11 10 12 13 14 15 16 13 10 7 3 4 6 5 6 10 13 12 11 14 17 17 16 15 14 12 13 19 21 19 17 16 14 15 17 17 15 14 13 14 13 12 11 11 9 8 8 9 8 7 8 8 8 6 5 3 2 4 5 6 6 6 6 6 8 9 9 11 12 12 13 14 14
8 9 10 10 11 11 12 12 12 12 12 11 10 11 13 14 13 13 12 10 6 4 6 8 8 9 10 11 11 11 10 12 15 15 14 15 14 10 9 13 17 16 16 16 15 18 19 17 15 16 16 14 12 12 12 11 10 10 10 10 9 7 7 7 6 4 3 2 1 3 5 6 6 6 6 7 9 9 10 11 12 12 12 13 15
7 8 9 9 10 11 12 11 11 13 14 13 12 14 15 13 11 10 10 11 9 8 9 10 11 13 13 12 11 13 13 13 14 14 15 16 17 16 16 17 16 16 16 16 17 18 17 15 17 20 18 15 14 16 16 14 13 13 12 10 8 6 5 3 3 2 2 2 2 3 4 5 5 5 6 7 8 9 11 12 11 11 12 14 15
8 8 8 8 9 12 14 14 12 11 11 12 12 13 12 10 9 9 10 10 10 10 11 12 13 13 14 15 16 17 17 17 18 19 19 19 19 20 21 20 18 18 18 16 14 14 15 16 19 19 16 13 14 15 14 13 11 10 10 9 7 6 5 4 3 2 2 2 3 3 3 3 4 5 6 6 8 10 12 12 12 12 14 15 16
8 8 8 7 9 12 16 16 14 11 11 13 14 14 12 11 10 10 11 12 12 13 13 14 14 15 15 17 21 22 22 22 21 21 21 21 21 21 21 20 19 18 16 15 15 16 17 18 18 17 15 13 11 9 9 10 9 8 8 8 7 7 7 5 3 3 3 3 4 5 4 3 4 4 5 6 9 11 12 13 13 13 15 16 16
9 8 7 7 8 10 13 16 15 14 13 15 16 18 16 13 10 11 13 14 14 15 15 14 15 16 17 18 21 24 25 25 23 22 22 21 21 21 21 19 18 17 16 16 18 19 19 18 18 18 18 16 13 11 11 11 9 8 6 5 6 6 6 5 4 3 3 4 5 5 5 6 6 5 4 8 10 11 11 12 12 13 15 16 16
9 8 8 8 8 8 10 13 14 14 13 13 15 18 19 18 15 14 14 14 14 14 14 14 15 18 19 20 22 24 26 26 25 23 22 21 20 20 19 16 15 17 19 20 20 20 19 17 17 17 16 14 13 12 11 10 9 7 4 3 4 5 5 6 4 3 3 4 5 6 7 8 8 6 7 10 11 11 11 12 12 13 15 15 13
9 9 9 9 9 8 9 10 11 11 11 11 12 15 18 20 18 16 15 15 14 15 15 15 16 18 20 21 23 25 26 25 24 23 22 20 18 16 15 13 15 18 21 21 20 19 18 17 15 15 14 11 9 9 9 7 6 4 3 3 3 4 5 6 5 3 3 4 5 7 8 9 8 8 9 9 10 11 12 13 13 13 14 13 13
8 8 9 9 9 8 8 9 10 11 11 11 11 13 16 19 19 17 16 16 16 15 16 16 17 19 20 22 23 24 25 24 22 20 19 17 16 15 15 15 14 15 16 16 15 15 15 13 12 13 13 10 7 7 7 5 3 2 3 3 3 3 4 6 5 4 4 5 6 7 8 9 10 11 9 9 10 12 12 13 14 14 12 12 14
7 8 9 9 9 9 9 9 10 11 12 12 12 12 14 16 18 18 18 17 16 16 16 17 19 20 21 22 22 22 22 20 19 18 18 17 17 17 18 17 16 14 13 13 12 12 12 10 9 10 10 8 6 6 6 4 2 1 3 3 2 2 4 6 6 6 5 5 6 7 9 10 11 11 10 11 12 12 11 12 14 14 12 13 15
Wind_Direction
131 130 131 137 144 150 154 154 157 160 160 156 152 154 158 157 155 153 151 152 150 148 148 146 142 140 139 136 132 130 128 125 124 124 124 125 124 124 125 123 122 120 119 118 111 107 107 101 93 92 96 103 99 100 107 89 75 93 88 75 76 62 70 98 115 121 105 111 105 79 82 60 89 120 91 38 2 2 247 261 335 338 342 1 349
126 127 135 143 148 155 156 155 158 159 154 151 156 161 165 167 160 153 160 166 160 159 161 158 157 152 147 143 137 135 132 129 130 129 127 128 127 128 131 128 125 124 122 117 111 110 111 107 101 94 103 114 88 95 128 139 152 134 121 108 101 84 48 100 130 142 136 133 138 127 117 47 49 184 225 5 9 8 311 269 329 341 335 345 342
135 138 142 144 150 157 157 158 160 158 155 156 162 165 167 171 165 156 161 169 167 171 171 166 167 162 154 149 145 141 138 136 135 133 130 129 129 128 130 130 129 129 127 121 118 117 113 113 113 102 112 120 54 69 113 66 23 73 90 96 97 82 17 39 115 135 141 142 166 177 160 85 39 150 195 297 307 337 42 313 314 302 294 331 343
140 147 146 148 158 162 160 166 164 159 160 163 165 167 169 169 165 161 170 176 178 179 176 174 173 168 162 157 153 149 145 142 141 141 139 137 135 128 127 132 132 132 135 134 131 128 121 122 122 111 118 113 65 69 74 11 23 47 68 93 114 116 262 292 96 124 153 166 175 164 161 209 201 157 217 272 280 309 307 291 290 305 359 8 354
138 148 149 152 167 173 171 174 171 167 169 169 168 171 170 169 173 180 186 190 187 179 175 179 180 174 172 168 162 158 154 151 150 150 149 147 146 139 136 141 141 143 146 138 137 140 138 138 136 128 126 111 77 62 14 316 331 8 47 105 159 169 193 247 350 26 57 171 168 152 146 282 264 247 276 271 26 1 319 298 350 26 21 15 4
138 145 148 151 164 174 177 180 179 178 182 181 181 184 180 179 186 193 197 196 190 182 181 186 187 183 181 177 172 168 165 166 165 161 159 156 154 151 150 151 150 152 150 135 137 144 145 151 154 154 152 147 166 16 25 346 333 357 13 24 83 160 173 231 291 319 343 360 38 106 67 317 318 328 321 323 342 347 3 16 12 11 7 2 358
143 148 149 149 156 165 171 176 177 181 191 193 196 197 192 193 201 208 208 199 190 189 192 192 191 191 191 189 188 184 180 182 182 178 174 167 162 162 163 163 161 161 158 154 158 161 163 170 166 169 180 178 186 206 40 304 305 329 339 357 22 133 167 266 285 299 302 310 348 359 307 299 297 294 301 312 319 339 20 14 1 357 355 351 344
131 138 143 142 146 154 162 171 179 189 194 193 202 204 197 201 212 222 222 207 193 194 200 200 198 199 201 198 197 196 193 193 192 189 186 181 177 175 173 172 172 171 167 166 171 170 172 181 184 184 188 192 207 215 213 226 249 276 288 306 326 321 311 279 285 302 304 288 281 267 260 260 260 252 243 263 308 355 6 352 348 348 341 335 332
118 121 128 128 136 150 156 155 162 183 188 189 207 210 204 208 215 223 230 219 205 205 209 209 206 207 212 209 205 204 201 200 199 196 192 188 185 183 180 179 177 176 179 180 179 180 174 181 195 204 197 197 208 216 226 234 230 234 250 259 268 274 273 270 274 283 292 287 267 254 250 244 244 237 202 200 304 338 340 328 328 335 328 324 324
101 98 109 122 140 154 155 152 157 173 181 189 216 217 212 217 220 228 235 233 226 221 221 225 224 219 219 219 214 210 208 207 206 202 197 192 189 186 184 185 187 188 191 189 187 198 208 206 214 224 223 227 229 221 228 238 238 238 242 242 245 246 246 256 260 266 286 291 289 293 287 272 272 260 188 166 301 289 348 359 336 322 320 318 315
104 105 118 132 136 141 150 160 174 185 188 194 216 225 227 230 230 234 242 245 241 237 236 241 244 239 235 233 229 220 212 211 211 206 201 196 191 186 183 182 182 184 187 188 186 188 195 208 220 226 231 239 243 240 241 248 251 250 249 246 247 244 241 245 246 249 268 283 301 318 323 338 350 347 110 111 95 94 65 17 341 323 317 314 312
92 91 95 106 117 138 163 177 186 191 197 211 221 222 225 228 224 228 241 245 244 246 249 248 247 248 247 246 244 235 220 212 213 212 207 201 194 188 188 186 183 181 183 188 189 184 183 195 208 215 223 228 231 237 241 247 251 253 251 247 247 246 244 242 236 236 247 263 321 345 348 13 26 32 67 76 66 36 2 344 338 329 318 316 314
69 66 62 67 79 90 107 145 169 174 178 197 215 216 218 221 219 222 234 239 237 236 239 247 251 249 246 246 246 245 231 216 214 215 211 206 201 199 198 196 193 189 187 191 193 192 196 205 206 201 205 219 228 232 241 255 260 258 253 246 245 248 247 243 238 238 246 248 286 9 2 22 60 73 47 15 352 346 343 335 330 317 311 312 306
58 51 50 47 45 43 45 53 63 87 130 170 207 218 225 234 238 238 240 241 240 235 231 238 250 247 244 245 245 247 248 237 225 220 214 209 208 208 205 200 199 201 204 208 210 206 206 207 201 192 199 232 242 233 238 255 256 247 246 246 245 245 246 245 243 243 252 258 257 280 303 300 99 85 352 337 339 342 339 327 316 306 303 303 301
54 40 37 34 30 29 30 33 33 27 24 26 256 246 249 253 256 260 257 251 249 249 244 240 240 239 239 243 244 245 248 249 244 236 224 215 214 212 208 206 207 211 217 221 217 213 212 212 211 211 218 227 226 216 220 232 228 223 229 230 231 235 237 240 242 242 247 251 245 237 231 223 221 288 311 318 320 316 311 305 304 305 306 306 305
41 30 27 22 18 17 16 15 15 13 9 3 347 333 316 285 270 264 259 252 248 249 249 244 242 241 241 244 248 250 250 249 248 243 231 225 225 222 218 215 211 208 209 212 214 215 216 219 225 227 219 211 206 204 204 197 195 201 193 187 198 217 227 229 231 228 225 218 215 217 219 233 264 287 299 306 304 300 301 303 305 312 317 316 314
20 18 18 11 4 4 3 0 360 359 356 352 351 353 350 337 320 296 272 262 251 244 243 245 247 249 250 251 251 253 257 257 249 237 229 230 232 229 225 223 222 220 218 218 222 221 218 222 223 213 204 203 203 205 203 190 178 179 170 170 189 214 218 219 218 213 213 214 218 231 248 266 280 292 300 306 308 309 312 315 318 321 318 313 311
8 7 4 356 351 353 351 346 344 342 340 338 339 341 338 332 326 317 301 283 269 260 251 246 247 251 255 256 254 250 248 250 247 236 230 231 231 228 226 228 231 233 232 231 230 221 214 214 209 199 198 203 201 197 195 186 173 173 169 165 182 204 207 211 213 214 220 230 245 262 275 285 293 301 308 314 318 320 323 323 321 320 313 305 301
357 353 349 343 341 341 336 330 328 327 323 320 319 319 317 314 312 312 309 297 284 274 264 251 246 249 256 259 258 252 246 245 244 239 236 234 230 228 227 227 230 234 233 228 220 210 202 196 192 191 192 193 185 179 180 176 168 170 174 176 187 201 204 185 178 192 205 234 280 293 300 306 310 314 321 330 331 320 311 304 301 301 304 299 294
344 339 336 334 330 328 323 320 320 319 313 308 306 303 301 300 297 297 299 298 292 284 277 269 258 254 261 263 257 252 251 252 250 248 248 241 230 226 226 227 233 239 235 221 202 192 187 179 177 181 178 172 171 169 169 170 169 171 179 182 178 180 180 159 147 145 136 135 294 300 303 304 308 312 315 315 311 303 298 294 286 283 297 305 306
335 331 328 325 321 319 317 314 312 309 303 300 296 292 290 288 287 287 287 288 289 286 283 280 272 266 267 264 257 252 256 259 257 256 256 248 235 226 221 225 237 236 227 212 191 183 180 172 167 169 167 165 167 167 167 169 170 171 174 168 151 149 157 166 167 167 172 273 279 283 283 280 281 284 284 286 290 294 299 298 285 277 290 308 318
327 324 321 320 318 316 314 311 308 304 299 295 291 288 285 281 279 280 280 279 280 280 279 277 274 273 270 267 265 256 246 245 246 249 251 247 237 225 216 219 236 217 205 202 184 176 179 177 170 166 166 166 167 169 172 174 171 167 167 159 148 146 149 156 168 181 211 291 282 282 288 288 289 290 293 307 345 1 336 327 314 302 305 317 325
313 312 312 312 311 311 309 308 307 304 301 299 296 292 288 284 280 278 276 274 274 275 275 272 267 264 262 263 263 247 228 224 224 234 242 234 220 215 208 203 206 192 183 172 162 172 182 181 168 162 165 168 168 172 177 183 183 177 174 171 169 170 166 157 179 208 207 248 273 282 290 296 308 319 328 334 321 305 312 320 317 313 315 323 321
310 310 308 306 305 306 305 304 303 301 301 301 300 297 294 290 286 281 277 276 273 271 272 271 266 260 253 248 240 224 217 221 222 228 232 220 210 211 205 193 187 179 166 146 154 181 189 180 166 161 166 168 171 176 178 185 192 191 197 207 214 221 200 177 201 209 206 239 261 273 289 311 339 344 332 321 309 305 311 319 321 317 313 313 314
320 318 313 310 308 307 305 303 303 302 303 303 302 302 301 297 292 286 281 277 274 270 268 267 266 264 251 233 225 221 217 221 224 225 222 215 211 210 203 194 185 174 167 168 188 191 188 178 166 163 166 170 175 179 178 182 188 193 204 203 189 171 158 165 194 200 204 251 268 295 335 351 356 334 314 309 310 313 318 326 331 328 322 322 324
325 322 317 313 312 309 305 305 305 303 303 304 302 299 299 297 295 292 286 282 279 277 275 270 267 269 260 235 225 224 211 204 212 213 209 209 208 204 200 196 184 170 167 174 184 183 181 176 170 168 169 173 179 179 177 179 178 176 171 157 143 141 159 173 176 174 188 303 346 18 6 346 327 318 318 317 315 320 327 332 334 333 331 332 332
325 321 316 313 311 309 306 307 308 306 303 302 299 296 296 296 297 297 294 291 286 282 283 283 278 274 270 249 231 226 205 189 200 202 198 199 199 195 194 190 177 167 165 169 172 172 169 170 174 176 174 173 176 175 173 168 159 155 149 140 138 160 184 187 180 168 169 137 35 23 343 324 317 319 325 324 321 329 339 347 348 345 340 338 335
324 318 314 312 310 308 307 308 309 307 304 304 303 302 301 300 300 301 301 303 309 312 313 313 306 293 282 260 229 211 185 180 193 197 194 191 189 188 188 185 176 168 167 170 174 175 175 176 178 178 175 175 172 166 163 157 148 145 146 150 164 183 178 163 144 145 152 147 67 338 317 319 324 329 330 330 334 343 348 348 347 343 338 334 328
323 315 312 311 308 308 308 308 308 308 307 307 306 303 302 304 303 302 300 300 306 312 312 309 311 314 312 293 244 200 184 189 200 205 203 197 191 186 183 182 178 173 173 176 175 173 173 175 174 173 174 174 170 167 165 159 154 158 166 170 182 186 169 146 131 135 144 151 337 325 317 321 327 325 324 326 333 340 341 340 340 336 330 326 321
320 314 312 311 309 310 309 307 308 308 306 306 305 302 301 302 300 300 302 300 300 304 303 295 291 296 301 297 283 226 201 199 204 209 206 199 192 186 181 179 179 176 177 180 175 168 167 168 170 172 173 172 175 179 177 170 170 178 181 174 171 168 158 147 135 127 116 28 336 324 320 323 320 317 322 332 338 339 336 335 335 330 325 323 321
319 313 311 309 309 310 308 304 305 305 302 302 303 303 302 302 300 299 302 304 303 304 304 295 280 272 272 270 273 263 242 224 209 208 206 200 194 188 180 180 182 181 180 177 171 165 164 165 168 172 173 175 184 188 184 178 178 179 177 172 171 166 154 149 149 136 109 66 358 328 312 308 310 317 331 339 337 334 331 329 332 333 330 327 325
319 312 308 307 308 308 306 303 302 302 301 301 301 302 302 303 303 303 304 306 307 307 305 295 275 260 260 259 262 274 271 253 230 211 202 198 196 188 180 180 183 183 181 176 167 161 162 164 167 172 177 185 195 191 181 179 180 176 172 169 169 166 161 164 169 167 139 144 356 319 301 299 312 326 335 335 331 330 332 335 337 335 329 325 324
319 312 308 307 308 309 307 303 300 298 298 298 297 299 300 300 301 304 307 307 307 309 309 299 276 257 252 248 246 254 262 259 252 228 201 193 191 186 183 186 186 182 179 173 163 157 159 164 168 173 183 195 194 179 169 172 174 171 168 167 164 160 158 159 156 136 135 151 312 303 287 302 325 328 326 328 331 335 338 338 335 330 327 327 327
315 310 305 301 298 296 295 296 295 294 293 292 291 291 292 293 296 300 304 307 307 309 312 307 286 262 245 236 234 241 248 249 249 236 209 197 195 191 187 185 182 178 174 168 160 156 158 164 169 178 187 186 171 160 161 168 168 164 160 158 154 151 146 134 125 129 140 251 287 282 300 324 326 325 324 323 325 331 334 335 337 340 339 336 331
314 310 306 301 297 294 293 293 290 286 284 283 281 283 286 289 293 296 297 300 301 300 305 309 300 275 255 248 247 246 242 237 233 223 203 195 194 193 184 174 167 164 162 158 156 158 162 167 173 179 176 164 155 155 161 164 164 163 162 156 147 140 133 127 127 132 111 295 239 258 318 329 324 323 324 321 323 334 346 354 356 354 349 342 335
323 320 316 313 314 313 310 304 296 288 281 275 271 276 283 286 289 293 293 292 292 292 298 308 311 293 266 251 242 231 223 220 215 204 191 187 187 183 175 166 162 165 163 149 147 156 163 165 167 167 158 151 152 159 162 162 163 163 160 154 143 133 131 132 132 119 52 347 249 298 329 335 331 327 326 328 338 355 11 14 8 356 346 337 329
334 330 324 323 327 326 321 313 305 299 292 282 274 273 277 282 285 288 288 290 292 295 299 304 302 283 252 230 215 206 204 203 196 185 180 180 178 175 169 165 167 175 174 149 139 146 154 157 160 160 154 151 155 158 159 162 165 160 150 144 141 139 140 141 129 102 86 100 331 349 352 347 342 339 339 348 1 13 18 12 357 341 334 330 324
338 335 330 332 336 333 325 318 314 311 304 293 280 272 271 278 284 286 288 290 289 291 296 297 285 249 224 217 206 198 192 187 179 173 172 172 171 170 169 168 171 175 169 150 145 150 159 172 176 165 153 153 159 161 164 166 160 150 142 139 144 150 157 171 161 124 97 80 26 9 5 355 347 345 352 5 15 16 8 355 341 332 330 327 323
338 338 335 337 338 333 326 324 325 325 317 300 285 278 277 281 285 286 289 289 286 289 296 292 266 225 207 203 198 189 180 171 165 164 165 167 169 170 170 168 168 168 162 155 158 168 178 184 177 158 151 162 167 163 162 156 139 133 137 148 159 164 167 166 158 143 110 69 39 20 1 343 339 344 357 10 8 1 355 348 342 337 332 326 322
341 338 335 339 341 337 333 332 334 334 325 307 296 292 290 292 291 288 290 294 296 302 305 290 236 191 185 193 191 183 174 169 168 167 167 166 170 173 173 170 169 169 167 165 171 182 182 173 161 156 164 173 164 151 145 134 121 125 141 160 155 146 134 123 130 126 96 63 43 7 339 332 337 346 352 358 1 3 2 353 343 337 333 328 325
345 338 335 341 344 341 335 330 331 328 315 305 304 302 299 299 296 291 295 303 309 313 311 283 158 146 170 184 177 169 166 167 171 174 175 174 168 168 172 172 171 172 175 175 177 180 172 160 157 162 161 149 137 132 131 129 126 130 142 143 130 122 118 119 123 114 84 61 31 340 334 339 342 341 344 1 17 18 5 348 340 339 339 337 334
343 339 339 343 346 344 338 333 330 324 312 306 306 303 300 300 298 299 306 315 322 332 10 103 121 136 165 166 157 149 151 160 164 164 165 163 159 158 170 176 176 178 183 183 180 174 166 159 159 159 144 129 131 136 135 132 133 133 133 129 119 108 102 100 102 102 93 76 15 341 351 355 346 344 357 18 23 13 357 345 343 343 341 339 340
352 352 349 347 345 343 339 335 330 324 320 319 316 310 307 305 303 311 331 352 8 51 86 96 104 116 129 138 138 131 130 147 159 160 153 149 146 138 146 163 169 174 179 176 167 162 161 156 149 143 133 125 132 141 139 132 125 117 116 120 120 116 107 98 96 106 109 91 28 1 1 356 350 357 13 18 15 8 356 345 341 343 347 350 350
13 10 2 355 348 344 342 340 333 326 324 327 329 328 328 327 325 338 12 37 53 77 96 100 102 105 105 103 105 108 111 124 140 144 141 139 137 128 124 129 134 138 142 140 141 149 153 144 132 130 127 118 118 123 124 122 118 111 110 115 122 124 119 103 101 105 85 69 66 34 5 353 357 11 16 14 12 2 348 343 348 359 5 1 351
31 22 8 359 355 355 355 354 351 348 345 344 346 350 360 12 17 20 40 67 85 94 92 90 91 94 94 93 98 105 110 113 117 119 121 123 124 124 124 123 118 115 117 118 124 139 143 132 126 126 121 110 110 114 113 113 118 120 117 114 110 102 93 91 104 105 88 82 77 50 14 358 11 22 18 10 3 354 351 358 10 12 2 350 341
45 28 7 359 0 3 4 4 6 16 22 17 14 16 25 39 50 58 71 87 95 92 86 86 91 94 93 94 98 102 106 108 108 109 110 112 112 112 113 112 108 106 107 110 121 130 129 123 123 124 117 105 100 100 99 102 110 117 112 101 90 81 76 79 98 111 107 88 61 40 30 35 44 41 24 6 359 358 4 11 13 5 353 343 337
46 30 10 5 2 2 8 11 14 20 25 24 22 23 24 29 52 78 89 93 94 92 88 88 92 95 95 95 97 99 101 102 102 102 101 102 104 106 105 104 107 110 110 112 121 126 126 124 126 127 121 112 103 99 102 112 123 124 109 90 84 78 68 67 83 100 102 83 53 34 38 55 60 52 20 0 358 2 6 4 0 357 352 344 342
46 33 19 13 7 4 10 18 21 23 23 22 23 27 31 35 47 69 88 94 93 90 89 88 91 95 96 97 98 101 103 103 102 101 97 94 98 103 101 98 106 115 115 114 116 117 116 118 124 127 126 121 117 114 116 123 132 130 104 72 82 79 60 54 67 85 90 74 52 44 55 60 52 34 13 2 0 2 358 350 348 352 350 347 353
52 43 32 24 21 17 17 23 29 29 29 30 30 33 40 45 51 62 77 84 82 81 84 89 93 97 99 99 101 104 106 104 103 101 97 91 93 101 104 104 110 114 113 111 111 110 107 107 114 122 123 124 130 136 132 124 123 121 87 57 76 80 58 49 57 74 84 68 51 53 63 59 43 29 19 8 2 360 353 347 348 352 354 0 13
65 62 49 38 37 36 34 37 39 36 39 43 42 40 46 52 54 60 71 78 80 82 86 92 98 101 102 103 103 102 102 101 99 99 98 97 97 103 108 111 113 112 107 103 105 113 118 117 116 116 115 116 134 151 142 121 105 99 60 43 61 76 60 49 50 59 70 66 54 53 57 52 41 35 28 15 6 360 353 352 357 0 7 20 23
66 72 68 61 57 52 49 52 51 45 47 52 50 50 57 60 62 66 74 82 88 90 91 96 102 103 103 104 104 101 101 102 103 103 104 104 104 106 107 106 103 101 98 92 91 102 113 115 112 113 118 126 144 153 139 120 109 73 30 25 45 81 63 48 44 48 55 58 53 50 50 48 44 37 26 15 10 3 356 358 4 8 18 27 20